Flag for U.S.A. Weather past 2 weeks in Akron, Ohio, U.S.A.

Now
62 °F

Fog.


Feels Like: 62 °F
Forecast: 58 / 78 °F
Wind: 8 mph from Southwest

Location: Akron Fulton International Airport

Current Time: Jul 31, 2014 at 8:46:51 AM

Latest Report: Jul 31, 2014 at 7:54 AM


Visibility: 6 mi

Pressure: 30.05 "Hg

Humidity: 90%

Dew point: 59 °F

Location of AkronLocation

Historic Weather in Akron — Graph

°F

Akron temperature yesterday

Maximum temperature yesterday: 75 °F (at 3:54 PM)
Minimum temperature yesterday: 56 °F (at 5:54 AM)
Average temperature yesterday: 65 °F

Past Weeks' High & Low Weather Summary

 TemperatureHumidityPressure
High86 °F (Jul 22, 12:54 PM)94% (Jul 19, 9:02 AM)30.24 "Hg (Jul 19, 9:02 AM)
Low51 °F (Jul 18, 4:54 AM)33% (Jul 18, 1:54 PM)29.61 "Hg (Jul 27, 8:54 PM)
Average68 °F73%30.00 "Hg
* Reported Jul 16 6:54 AM — Jul 31 6:54 AM, Akron, Weather by CustomWeather, © 2014

Note: Actual official high and low records may vary slightly from our data, if they occured in-between our weather recording intervals... More about our weather records

Advertising

Akron weather history for previous 24 hours

 ConditionsComfort  
Time TempWeatherWind HumidityBarometerVisibility
6:54 AM
Jul 31
59 °FFog.3 mph93%30.03 "Hg3 mi
5:54 AM60 °FFog.6 mph93%30.01 "Hg6 mi
4:54 AM60 °FFog.6 mph93%30.01 "Hg5 mi
3:54 AM62 °FFog.6 mph90%30.00 "Hg5 mi
2:54 AM62 °FFog.5 mph90%30.00 "Hg6 mi
1:54 AM63 °FOvercast.7 mph90%30.01 "Hg9 mi
1:03 AM63 °FThundershowers. Overcast.No wind87%30.03 "Hg10 mi
12:54 AM63 °FOvercast.No wind87%30.02 "Hg9 mi
11:54 PM
Jul 30
61 °FThunderstorms. Passing clouds.5 mph87%30.02 "Hg10 mi
10:54 PM61 °FThunderstorms. Passing clouds.9 mph87%30.01 "Hg10 mi
9:54 PM63 °FThundershowers. Overcast.7 mph84%30.02 "Hg10 mi
8:54 PM62 °FPassing clouds.No wind86%30.00 "Hg10 mi
7:54 PM64 °FPassing clouds.6 mph81%30.00 "Hg10 mi
7:01 PM66 °FStrong thunderstorms. Cloudy.9 mph78%30.03 "Hg2 mi
6:01 PM69 °FPartly sunny.8 mph63%30.01 "Hg10 mi
4:54 PM74 °FSunny.10 mph57%29.98 "Hg10 mi
3:54 PM75 °FPartly sunny.12 mph52%29.99 "Hg10 mi
2:54 PM73 °FPassing clouds.10 mph55%29.98 "Hg10 mi
1:54 PM72 °FMostly cloudy.7 mph59%30.01 "Hg10 mi
12:54 PM70 °FBroken clouds.12 mph68%30.02 "Hg10 mi
11:54 AM69 °FMostly cloudy.7 mph63%30.03 "Hg10 mi
10:54 AM67 °FOvercast.9 mph71%30.03 "Hg10 mi
9:54 AM67 °FPassing clouds.5 mph71%30.02 "Hg10 mi
8:54 AM63 °FSunny.6 mph78%30.02 "Hg10 mi
Weather by CustomWeather, © 2014

See weather overviewHow to use our weather pages